Terug naar catalogus

COSMOS 839 DEB

ActiefUNKNOWN
NORAD 10614·DEBRIS·🇷🇺 Russia

Gelanceerd Jul 8, 1976 vanaf Plesetsk Cosmodrome

Loading…

Volgende Passages (komende 24 uur)

TLE

VersSource: Space-Track

Epoch: Sep 14, 2026, 04:11 UTC

1 10614U 76067AN  26257.17463087  .00000198  00000-0  72285-3 0  9991
2 10614  65.7318 149.3471 0730405 140.8635  18.1083 12.42099193271077

Volg COSMOS 839 DEB in realtime met AllMySat

Download on the App Store